Regional Weather Roundup
Issued by NWS

Home | Current Version | Previous Version | Text Only | Print | Product List | Glossary Off
Versions: 1 2 3 4 5 6 7 8 9 10 11 12 13 14 15 16 17 18 19 20 21 22 23 24 25 26 27

000
ASUS45 KSLC 212210
RWRUT

UTAH REGIONAL WEATHER ROUNDUP
NATIONAL WEATHER SERVICE SALT LAKE CITY UT
400 PM MDT SUN MAY 21 2017

UTZ001>011-023>025-212300-

NORTHERN UTAH

CITY           SKY/WX    TMP DP  RH WIND       PRES   REMARKS
BRIGHAM CITY   MOSUNNY   64  45  50 S3        30.19F
HILL AFB       MOSUNNY   60  43  53 CALM      30.20F
LOGAN          MOSUNNY   67  46  47 VRB5      30.18F
OGDEN          SUNNY     62  42  47 NW8       30.18F
SALT LAKE CITY PTSUNNY   66  46  48 N7        30.18F
TOOELE VALLEY  SUNNY     61  46  59 N5        30.20S
WENDOVER       SUNNY     68  40  35 N8        30.19F
HEBER CITY     MOSUNNY   61  39  44 SE6       30.19F
WEST JORDAN    MOSUNNY   63  54  72 CALM      30.20F

$$

UTZ011>015-024>027-212300-

CENTRAL/NORTHEAST UTAH

CITY           SKY/WX    TMP DP  RH WIND       PRES   REMARKS
PROVO AIRPORT  MOSUNNY   60  48  64 W9        30.20F
MOAB/CANYONLAN CLOUDY    71  35  26 NW26G36   30.09R
DELTA          PTSUNNY   63  43  48 NE12      30.16S
PRICE            N/A     55  41  59 CALM      30.22S THUNDER
RICHFIELD      SUNNY     64  37  36 NE5       30.18F
ROOSEVELT      CLOUDY    63  36  36 S5        30.19S
VERNAL         CLOUDY    62  37  39 SW8       30.17S

$$

UTZ013>016-019>022-027-212300-

SOUTHERN UTAH

CITY           SKY/WX    TMP DP  RH WIND       PRES   REMARKS
BRYCE CANYON   PTSUNNY   62  26  25 NW13G21   30.23F
CEDAR CITY     PTSUNNY   73  32  22 W14G24    30.13R
MILFORD        MOSUNNY   75  35  23 N14G24    30.11F
ST GEORGE      PTCLDY    86  30  13 NW5       29.96F
HANKSVILLE     CLOUDY    64  34  32 N24G39    30.15R
KANAB          SUNNY     81  27  13 W13G18    30.11F
BLANDING       PTSUNNY   69  28  21 NE7       30.21F

$$

REGIONAL REPORTS     COLORADO/ARIZONA

CITY           SKY/WX    TMP DP  RH WIND       PRES   REMARKS
CRAIG, CO      CLOUDY    61  33  35 W12       30.18F
GRAND JUNCTION SUNNY     70  30  22 VRB5      30.10F
RIFLE, CO      CLOUDY    70  26  19 NW10G17   30.11F
MONTROSE, CO   CLOUDY    67  28  23 NW7       30.13F
CORTEZ, CO     SUNNY     72  27  18 W16G22    30.14F
COLORADO CITY    N/A     82  28  14 W12       30.11F
PAGE, AZ       PTSUNNY   79  30  16 S7G18     30.04F
GRAND CANYON   MOSUNNY   72  25  17 VRB5      30.19F
KINGMAN, AZ    SUNNY     90  26  10 CALM      29.98F
FLAGSTAFF, AZ  MOSUNNY   70  21  15 N8        30.19F

$$

REGIONAL REPORTS    NEVADA/IDAHO/WYOMING

CITY           SKY/WX    TMP DP  RH WIND       PRES   REMARKS
LAS VEGAS, NV  MOSUNNY   96  15   5 SW8       29.87F
ELY, NY        MOSUNNY   69  26  20 NE15      30.19F
ELKO, NV       MOSUNNY   71  35  26 E6        30.19F
POCATELLO, ID  MOSUNNY   70  36  28 N9        30.19F
BURLEY, ID     MOSUNNY   68  42  38 VRB6      30.19F
FORT BRIDGER,  MOCLDY    61  36  38 NW13G21   30.25F
EVANSTON, WY   LGT RAIN  56  36  47 N15G26    30.23S
ROCK SPRINGS,  CLOUDY    55  38  52 E15G22    30.22F
KEMMERER, WY     N/A     55  34  44 N13G20    30.26S

$$




USA.gov is the U.S. government's official web portal to all federal, state and local government web resources and services.